www.pogodaiklimat.ru

Погода и климат >> Архив погоды >> Камерун >> Гаруа


ПОГОДА в Гаруа

  • Прогноз погоды в Гаруа
  • Монитор погоды в Гаруа

АРХИВ ПОГОДЫ в Гаруа

Время (UTC), дата Ветер
(напр.,м/с)
 
Видим.   Явления Облачность Т
(С)
Тd
(С)
f
(%)
Тe
(С)
Тes
(С)
Комфортность P
(гПа)
Po
(гПа)
Тmin
(С)
Tmax
(С)
R
(мм)
R24
(мм)
S
(см)
12 10.08 З 7 20 км 9/6 480 м
[Cu med, cong Ac lent Ci sp]
+31.8 +22.1 57 +41 +42 опасность
перегрева
1012.9 986.6
15 10.08 СЗ 4 20 км 8/6 480 м
[Cb cap Ci sp]
+32.7 +21.2 51 +40 +42 очень
душно
1010.2 984.0
18 10.08 СЗ 4 20 км 9/3 480 м
[Cb calv Ac cuf Ci sp]
+29.4 +21.5 63 +37 +37 очень
душно
1010.9 984.5 +33.4
21 10.08 СЗ 2 20 км 9/0
[Ci sp]
+27.2 +21.3 70 +34 +34 очень
душно
1013.5 987.1
00 11.08 СЗ 3 20 км 9/0
[Ci sp]
+26.2 +22.3 79 +34 +34 очень
душно
1012.0 985.7
03 11.08 СЗ 2 10 км 9/5 400 м
[Sc Ci sp]
+26.0 +22.0 79 +34 +34 очень
душно
1011.5 985.3
06 11.08 З 2 10 км 9/3 400 м
[Sc Ac trans Ci sp]
+25.0 +22.8 88 +33 +34 очень
душно
1012.1 985.7 +25.0
09 11.08 З 4 20 км 9/6 480 м
[Cu med, cong Ac trans Ci sp]
+29.7 +22.2 64 +39 +42 очень
душно
1013.0 986.7
12 11.08 З 6 20 км 9/6 400 м
[Cu med, cong Ac trans]
+31.4 +22.2 58 +40 +42 очень
душно
1011.0 984.7
15 11.08 ЮЗ 2 20 км 9/8 400 м
[Cb calv Ac trans]
+31.0 +23.2 63 +41 +42 опасность
перегрева
1008.5 982.3
18 11.08 ЮЗ 2 20 км гроза без осадков 9/8 400 м
[Cb calv Ac trans]
+28.8 +23.7 74 +39 +39 очень
душно
1010.1 983.7 +32.7
21 11.08 Ю 1 10 км гроза, ливневой дождь 10/5 400 м
[Cb cap Ac As]
+23.4 +22.5 95 +32 +32 очень
душно
1013.4 986.9
00 12.08 СЗ 1 10 км в посл. час гроза {дождь} 9/3 400 м
[Sc Ac trans Ci sp]
+22.7 +21.7 94 +30 +30 очень
душно
1011.5 985.1 6
03 12.08 штиль 0 10 км 10/0
[Ci sp]
+23.1 +22.8 98 +32 +32 очень
душно
1010.2 983.8
06 12.08 штиль 0 10 км 10/10 60 м
[St]
+23.4 +22.8 96 +33 +33 очень
душно
1011.7 985.2 +22.6 6
09 12.08 З 2 20 км 9/8 480 м
[Cu med, cong Ac trans]
+28.3 +24.0 78 +39 +42 очень
душно
1012.9 986.3
12 12.08 З 7 20 км 9/6 480 м
[Cb cap Ac trans]
+31.0 +23.0 62 +41 +42 опасность
перегрева
1010.0 983.6
15 12.08 СЗ 4 20 км 9/6 480 м
[Cb cap Ac trans Ci sp]
+31.6 +22.4 58 +41 +42 опасность
перегрева
1007.7 981.4
18 12.08 ЮЗ 3 20 км 9/1 480 м
[Cu hum Ac trans Ci sp]
+27.3 +23.3 79 +37 +37 очень
душно
1009.4 982.9 +33.2
21 12.08 З 1 20 км зарница 9/1 480 м
[Sc Ac trans Ci sp]
+26.1 +23.7 87 +36 +36 очень
душно
1011.3 984.9
00 13.08 З 1 20 км зарница 9/6 400 м
[Sc Ac trans Ci sp]
+25.5 +23.9 91 +35 +35 очень
душно
1010.7 984.4
03 13.08 З 1 20 км 9/4 400 м
[Sc Ac trans Ci sp]
+24.9 +23.5 92 +34 +34 очень
душно
1010.9 984.6
06 13.08 З 1 20 км 9/4 400 м
[Sc Ac trans Ci sp]
+25.0 +23.4 91 +34 +34 очень
душно
1012.5 986.0 +25.0
09 13.08 З 1 20 км 9/6 480 м
[Cu med, cong Ac trans Ci sp]
+29.0 +23.1 71 +39 +44 очень
душно
1012.8 986.4
12 13.08 З 4 20 км 9/6 600 м
[Cu med, cong Ac trans Ci sp]
+31.6 +22.2 58 +41 +44 опасность
перегрева
1010.5 984.2
15 13.08 З 4 20 км 9/4 600 м
[Cb calv Ac trans Ci sp]
+33.5 +22.0 51 +42 +44 опасность
перегрева
1007.6 981.5
18 13.08 СЗ 2 20 км гроза без осадков 9/5 480 м
[Cb cap Ci sp]
+28.5 +22.1 68 +37 +37 очень
душно
1008.9 982.5 +34.0
21 13.08 З 1 20 км в посл. час гроза 9/4 480 м
[Sc Ac lent Ci sp]
+26.4 +23.5 84 +36 +36 очень
душно
1012.0 985.6
00 14.08 СЗ 2 10 км {гроза} 10/4 480 м
[Sc Ac As]
+26.0 +23.3 85 +35 +35 очень
душно
1011.3 985.0
03 14.08 З 1 20 км 9/3 480 м
[Sc Ac trans Ci sp]
+25.6 +23.3 87 +34 +34 очень
душно
1011.2 985.0
06 14.08 СВ 2 7000 м гроза, ливневой дождь 10/5 400 м
[Cb cap Ac As]
+24.7 +24.0 96 +34 +34 очень
душно
1013.6 987.1 +24.7 2
09 14.08 З 1 7000 м в посл. час гроза {дождь} 10/9 60 м
[Cb cap Ac As]
+25.6 +24.6 94 +36 +37 очень
душно
1014.3 987.7
12 14.08 З 5 15 км {гроза, дождь} 9/8 400 м
[Cb calv Ac As]
+30.4 +23.3 66 +41 +42 опасность
перегрева
1011.8 985.5 4
15 14.08 З 2 20 км 9/6 480 м
[Cb cap Ac trans]
+30.7 +23.9 67 +42 +44 опасность
перегрева
1009.3 983.0
18 14.08 З 2 20 км 9/4 480 м
[Cb cap Ac trans Ci sp]
+27.0 +23.3 80 +36 +36 очень
душно
1010.1 983.6 +31.7 4
21 14.08 штиль 0 10 км в посл. час дождь 10/3 480 м
[Sc Ac As]
+26.0 +23.0 84 +35 +35 очень
душно
1012.8 986.2
00 15.08 штиль 0 10 км {дождь} 9/0
[Ac und]
+25.5 +23.5 89 +35 +35 очень
душно
1011.3 985.0 0.0
03 15.08 З 1 10 км 9/4 400 м
[Sc Ac As]
+24.7 +23.4 92 +33 +33 очень
душно
1010.9 984.5
06 15.08 З 1 10 км 9/3 400 м
[Sc Ac As]
+25.2 +23.5 90 +34 +34 очень
душно
1011.8 985.3 +24.6 4
09 15.08 СЗ 2 10 км 9/5 400 м
[Sc Ac As Ci fib]
+29.1 +23.2 71 +39 +45 очень
душно
1012.7 986.3
12 15.08 З 7 20 км 9/5 400 м
[Cb cap Ac trans Ci fib]
+30.9 +23.2 64 +41 +43 опасность
перегрева
1010.5 984.2
15 15.08 З 3 20 км 9/5 400 м
[Cb cap Ac trans Ci fib]
+30.0 +22.8 65 +40 +41 очень
душно
1008.1 981.8
18 15.08 ЮЗ 2 20 км гроза без осадков 9/5 400 м
[Cb cap Ac trans Ci fib]
+27.0 +23.0 79 +36 +36 очень
душно
1009.8 983.3 +32.0
21 15.08 штиль 0 20 км в посл. час гроза 9/3 400 м
[Sc Ac trans Ci sp]
+25.6 +23.3 87 +34 +34 очень
душно
1012.3 985.9
00 16.08 штиль 0 20 км {гроза} 9/3 400 м
[Sc Ac trans]
+25.5 +23.0 86 +34 +34 очень
душно
1011.3 985.0
03 16.08 штиль 0 20 км 9/3 400 м
[Sc Ac trans]
+24.9 +23.0 89 +33 +33 очень
душно
1011.1 984.7
06 16.08 штиль 0 20 км 9/3 400 м
[Sc Ac trans]
+25.0 +23.4 91 +34 +34 очень
душно
1012.5 986.0 +24.7
09 16.08 З 3 7000 м гроза, ливневой дождь 10/9 90 м
[Cb cap Ac As]
+25.0 +20.8 78 +31 +32 очень
душно
1013.9 987.3
12 16.08 В 5 6000 м гроза, ливневой дождь 10/9 90 м
[Cb cap Ac As]
+22.6 +21.9 96 +30 +31 очень
душно
1012.4 985.7 5
15 16.08 В 1 20 км гроза без осадков 9/6 300 м
[Cb calv Ac und]
+24.0 +22.2 90 +31 +33 очень
душно
1010.4 983.8
18 16.08 Ю 2 20 км {гроза, дождь} 9/4 300 м
[Sc diur, vesp Ac und Cs]
+23.5 +22.5 94 +31 +31 очень
душно
1009.6 983.0 +26.8 7
21 16.08 В 1 10 км 9/4 300 м
[Sc diur, vesp Ac trans]
+23.0 +22.7 98 +32 +32 очень
душно
1012.4 985.7
00 17.08 штиль 0 10 км 9/5 300 м
[Sc diur, vesp Ac trans]
+23.0 +22.7 98 +32 +32 очень
душно
1012.7 985.9
03 17.08 штиль 0 10 км 10/3 400 м
[Sc Ac trans]
+22.8 +22.4 98 +31 +31 очень
душно
1011.6 984.9
06 17.08 штиль 0 8000 м 10/6 90 м
[Frnb Ac As]
+23.1 +22.7 98 +32 +32 очень
душно
1012.9 986.1 +22.7 7
09 17.08 З 2 20 км 9/8 300 м
[Sc Ac trans]
+28.0 +23.6 77 +38 +41 очень
душно
1013.0 986.4

 

Местоположение метеостанции Гаруа (Камерун): широта 9.33 долгота 13.38 высота над уровнем моря 244 м.

В архиве по умолчанию представлена погода в Гаруа за последнюю неделю. Архивные данные за месяц целиком и за предыдущие месяцы, начиная с января 2011 года, Вы можете получить, выбрав интересующий диапазон дат из раскрывающегося списка и нажав кнопку "Ввод!".


*Определитесь, кто Вы:
робот инопланетянин человек

Внимание! Время в таблицах - всемирное. Для получения местного времени необходимо прибавить поправку, которая равна 1 ч.

Смотрите также архив погоды в соседних городах и на ближайших метеорологических станциях:

Погода в Йоле (Нигерия) (101 км)
Погода в Пала (Чад) (170 км)
Погода в Нгаундере (Камерун) (221 км)
Погода в Гомбе (Нигерия) (266 км)
Погода в Мунду (Чад) (307 км)
Погода в Нджамене (Чад) (360 км)
Погода в Буссо (Чад) (388 км)
Погода в Буаре (ЦАР) (449 км)
Погода в Диффе (Нигер) (460 км)
Погода в Майне-Сороа (Нигер) (460 км)

Пояснения к столбцам:

Ветер - указаны скорость ветра в м/с - средняя за 10 мин, порывы в срок и между сроками (в фигурных скобках) и направление, откуда дует ветер: С - северный, СВ - северо-восточный, В - восточный, ЮВ - юго-восточный, Ю - южный, ЮЗ - юго-западный, З - западный, СЗ - северо-западный.
Видимость - горизонтальная дальность видимости в метрах или километрах. При видимости от 1 до 10 км при отсутствии осадков обычно наблюдается дымка, при ухудшении видимости до 1 км и менее - туман. В сухую погоду видимость может ухудшаться дымом, пылью или мглою.
Явления - указаны атмосферные явления, наблюдавшиеся в срок или в последний час перед сроком; фигурными скобками обозначены явления, наблюдавшиеся между сроками (за 1-3 часа до срока); квадратными скобками обозначены град или гололедные отложения с указанием их диаметра в мм.
Облачность - указаны через наклонную черту общая и нижняя облачность в баллах и высота нижней границы облаков в метрах; квадратными скобками обозначены формы облаков: Ci - перистые, Cs - перисто-слоистые, Cc - перисто-кучевые, Ac - высококучевые, As - высокослоистые, Sc - слоисто-кучевые, Ns - слоисто-дождевые, Cu - кучевые, Cb - кучево-дождевые. Подробнее классификацию облаков см. в Атласе облаков (PDF).
T - Температура воздуха - температура, измеренная на высоте 2 м над землей.
Td - Температура точки росы - температура, при понижении до которой содержащийся в воздухе водяной пар достигнет насыщения.
f - Относительная влажность воздуха - влажноcть воздуха, измеренная на высоте 2 м над землей.
Te - Эффективная температура - температура, которую ощущает одетый по сезону человек в тени. Характеристика душности погоды. При расчете учитывается влияние влажности воздуха и скорости ветра на теплоощущения человека.
Tes - Эффективная температура на солнце - температура, которую ощущает человек, с поправкой на солнечный нагрев. Характеристика знойности погоды. Зависит от высоты солнца над горизонтом, облачности и скорости ветра. Ночью, в пасмурную погоду, а также при ветре 12 м/с и более поправка равна нулю.
P - Атмосферное давление - приведенное к уровню моря атмосферное давление.
Po - Атмосферное давление - измеренное на уровне метеостанции атмосферное давление.
Tmin - Минимальная температура - минимум температуры воздуха на высоте 2 м над землей.
Tmax - Максимальная температура - максимум температуры воздуха на высоте 2 м над землей.
R - Количество осадков - Количество выпавших осадков за период времени, мм. При наведении курсора мыши на число - период времени, за который выпало указанное количество осадков.
R24 - Количество осадков - Количество выпавших осадков за 24 часа, мм.
S - Снежный покров - Высота снежного покрова, см. При наведении курсора мыши на число - состояние снежного покрова и степень покрытия местности в баллах.